| time (UTC) | temp C | wind direction | speed KPH | gust KPH | rain 1hr cm | rain 24hr cm | rain mn cm | humidity % | barometer mb |
| 20260502163055 | 21 | 11 | 0.0 | 0.0 | 0.00 | 2.72 | 0.00 | 58 | 1019.6 |
| 20260502161553 | 20 | 19 | 0.0 | 0.0 | 0.00 | 2.72 | 0.00 | 60 | 1019.6 |
| 20260502151534 | 17 | 5 | 0.0 | 0.0 | 0.00 | 2.90 | 0.00 | 71 | 1019.3 |
| 20260502123004 | 11 | 26 | 0.0 | 0.0 | 0.00 | 4.55 | 0.00 | 93 | 1017.6 |
| 20260502121503 | 11 | 355 | 0.0 | 0.0 | 0.00 | 4.55 | 0.00 | 94 | 1017.5 |
| 20260502114603 | 11 | 11 | 0.0 | 0.0 | 0.00 | 5.41 | 0.00 | 93 | 1016.9 |
| 20260502113058 | 11 | 11 | 0.0 | 0.0 | 0.00 | 5.41 | 0.00 | 93 | 1016.9 |
| 20260502111601 | 11 | 24 | 0.0 | 0.0 | 0.00 | 5.41 | 0.00 | 92 | 1016.8 |
| 20260502110056 | 11 | 22 | 0.0 | 0.0 | 0.00 | 5.41 | 0.00 | 92 | 1016.7 |
| 20260502104554 | 12 | 9 | 0.0 | 0.0 | 0.00 | 6.02 | 0.00 | 91 | 1016.6 |
| 20260502103051 | 12 | 30 | 0.0 | 0.0 | 0.00 | 6.02 | 0.00 | 91 | 1016.4 |
| 20260502101553 | 12 | 13 | 0.0 | 0.0 | 0.00 | 6.02 | 0.00 | 91 | 1016.3 |
| 20260502100109 | 12 | 36 | 0.0 | 0.0 | 0.00 | 6.02 | 0.00 | 91 | 1015.9 |
| 20260502070033 | 13 | 22 | 0.0 | 0.0 | 0.00 | 9.75 | 0.00 | 90 | 1015.0 |
| 20260502064527 | 13 | 51 | 0.0 | 0.0 | 0.00 | 9.78 | 0.00 | 91 | 1014.7 |
| 20260502063026 | 13 | 59 | 0.0 | 0.0 | 0.00 | 9.78 | 0.00 | 91 | 1014.6 |
| 20260502061525 | 13 | 61 | 0.0 | 0.0 | 0.00 | 9.78 | 0.00 | 91 | 1014.6 |
| 20260502060023 | 13 | 41 | 0.0 | 0.0 | 0.00 | 9.78 | 0.00 | 91 | 1014.5 |
| 20260502054522 | 13 | 5 | 0.0 | 0.0 | 0.00 | 10.29 | 0.00 | 92 | 1014.5 |
| 20260502053020 | 13 | 360 | 0.0 | 0.0 | 0.00 | 10.29 | 0.00 | 92 | 1014.5 |
| 20260502051532 | 13 | 40 | 0.0 | 0.0 | 0.00 | 10.29 | 0.00 | 92 | 1014.5 |
| 20260502050017 | 13 | 327 | 0.0 | 0.0 | 0.00 | 10.29 | 0.00 | 93 | 1014.3 |
| 20260502044516 | 13 | 13 | 0.0 | 0.0 | 0.00 | 11.02 | 10.29 | 93 | 1014.3 |
| 20260502043016 | 13 | 355 | 0.0 | 0.0 | 0.00 | 11.02 | 10.29 | 93 | 1014.2 |
| 20260502041515 | 13 | 11 | 0.0 | 0.0 | 0.00 | 11.02 | 10.29 | 94 | 1014.1 |
| 20260502040015 | 13 | 18 | 0.0 | 0.0 | 0.00 | 11.02 | 10.29 | 94 | 1014.5 |
| 20260502034519 | 13 | 15 | 0.0 | 0.0 | 0.00 | 11.02 | 10.29 | 94 | 1014.4 |
| 20260502033014 | 13 | 26 | 0.0 | 0.0 | 0.00 | 11.02 | 10.29 | 94 | 1014.1 |
| 20260502031510 | 13 | 322 | 0.0 | 0.0 | 0.03 | 11.02 | 10.29 | 94 | 1013.9 |
| 20260502030008 | 13 | 17 | 0.0 | 0.0 | 0.08 | 11.02 | 10.29 | 94 | 1013.5 |
| 20260502024504 | 13 | 22 | 0.0 | 0.0 | 0.13 | 11.02 | 10.29 | 95 | 1013.1 |
| 20260502023004 | 13 | 20 | 0.0 | 0.0 | 0.18 | 11.02 | 10.29 | 95 | 1012.6 |
| 20260502021502 | 13 | 13 | 0.0 | 0.0 | 0.30 | 11.00 | 10.26 | 95 | 1012.9 |
| 20260502020001 | 13 | 349 | 0.0 | 0.0 | 0.36 | 10.92 | 10.19 | 95 | 1012.5 |
| 20260502014559 | 13 | 44 | 0.0 | 0.0 | 0.30 | 10.90 | 10.16 | 95 | 1012.2 |
| 20260502013102 | 14 | 15 | 0.0 | 0.0 | 0.30 | 10.82 | 10.11 | 95 | 1011.9 |
| 20260502011557 | 15 | 296 | 0.0 | 0.0 | 0.15 | 10.69 | 9.96 | 95 | 1011.7 |
| 20260502010057 | 15 | 15 | 0.0 | 0.0 | 0.13 | 10.59 | 9.86 | 95 | 1012.2 |
| 20260502004552 | 15 | 319 | 0.0 | 0.0 | 0.28 | 10.59 | 9.86 | 95 | 1010.9 |
| 20260502003052 | 15 | 19 | 0.0 | 0.0 | 0.28 | 10.54 | 9.80 | 95 | 1010.3 |
| 20260502001551 | 15 | 17 | 0.0 | 0.0 | 0.30 | 10.54 | 9.80 | 95 | 1011.5 |
| 20260502000050 | 15 | 29 | 0.0 | 0.0 | 0.48 | 10.46 | 9.73 | 95 | 1011.1 |
| 20260501234555 | 15 | 21 | 0.0 | 0.0 | 0.43 | 10.29 | 9.58 | 95 | 1010.9 |
| 20260501233049 | 15 | 34 | 0.0 | 0.0 | 0.38 | 10.26 | 9.53 | 95 | 1010.3 |
| 20260501231556 | 15 | 15 | 0.0 | 0.0 | 0.36 | 10.24 | 9.50 | 95 | 1009.4 |
| 20260501230046 | 15 | 23 | 0.0 | 0.0 | 0.10 | 9.98 | 9.25 | 95 | 1010.4 |
| 20260501224544 | 15 | 44 | 0.0 | 0.0 | 0.03 | 9.88 | 9.14 | 95 | 1008.8 |
| 20260501223044 | 15 | 86 | 0.0 | 0.0 | 0.08 | 9.88 | 9.14 | 95 | 1008.3 |
| 20260501221542 | 16 | 41 | 0.0 | 0.0 | 0.13 | 9.88 | 9.14 | 95 | 1008.5 |
| 20260501220043 | 16 | 360 | 0.0 | 0.0 | 0.15 | 9.88 | 9.14 | 95 | 1009.1 |
| 20260501214554 | 16 | 20 | 0.0 | 0.0 | 0.18 | 9.86 | 9.12 | 95 | 1010.0 |
| 20260501213048 | 16 | 355 | 0.0 | 0.0 | 0.23 | 9.80 | 9.07 | 95 | 1010.0 |
| 20260501211539 | 16 | 16 | 0.0 | 0.0 | 0.25 | 9.75 | 9.02 | 95 | 1009.6 |
| 20260501210038 | 16 | 16 | 0.0 | 0.0 | 0.33 | 9.73 | 8.99 | 95 | 1008.1 |
| 20260501204538 | 16 | 59 | 0.0 | 0.0 | 0.36 | 9.68 | 8.94 | 95 | 1008.3 |
| 20260501203036 | 16 | 42 | 0.0 | 0.0 | 0.25 | 9.58 | 8.84 | 95 | 1009.0 |
| 20260501201542 | 16 | 350 | 0.0 | 0.0 | 0.20 | 9.50 | 8.76 | 95 | 1008.4 |
| 20260501200036 | 17 | 24 | 0.0 | 0.0 | 0.13 | 9.40 | 8.66 | 96 | 1008.3 |
| 20260501194539 | 17 | 14 | 0.0 | 0.0 | 0.10 | 9.32 | 8.59 | 96 | 1008.0 |
| 20260501193034 | 17 | 9 | 0.0 | 0.0 | 0.25 | 9.32 | 8.59 | 96 | 1008.1 |
| 20260501191534 | 17 | 360 | 0.0 | 0.0 | 0.28 | 9.30 | 8.56 | 96 | 1008.0 |
| 20260501190036 | 17 | 114 | 0.0 | 0.0 | 0.30 | 9.27 | 8.53 | 96 | 1008.5 |
| 20260501184533 | 17 | 59 | 0.0 | 0.0 | 0.33 | 9.22 | 8.48 | 96 | 1008.0 |
| 20260501183032 | 16 | 65 | 0.0 | 0.0 | 0.20 | 9.07 | 8.33 | 96 | 1008.4 |
| 20260501181534 | 16 | 88 | 0.0 | 0.0 | 0.20 | 9.02 | 8.28 | 96 | 1006.6 |
| 20260501180036 | 16 | 91 | 0.0 | 0.0 | 0.18 | 8.97 | 8.23 | 95 | 1006.7 |
| 20260501174527 | 16 | 17 | 0.0 | 0.0 | 0.15 | 8.89 | 8.15 | 95 | 1008.4 |
| 20260501173034 | 17 | 17 | 0.0 | 0.0 | 0.23 | 8.86 | 8.13 | 96 | 1008.9 |